Location: Choisy
(48.7685°N, 2.4187°E)
Time: 08:56:00
(UTC+00:00)

ATLAS 3B R/B - Pass Details

Date: 06 December 2023
Orbit: 947 x 1247 km, 63.8° (Epoch: 10 February)

Event Time Altitude Azimuth Distance (km) Brightness Sun altitude
Exits shadow 02:24:12 22° 69° (ENE) 2,299 4.8 -48.5°
Drops below altitude 10° 02:27:03 10° 53° (NE) 3,100 5.6 -48.0°
Sets 02:30:08 0° 44° (NE) 4,107 6.4 -47.6°
